User: anonymous   Login
Location: Valley View Observatory
(41.0081°N, 76.5874°W)
Time: 07:06:37
(UTC-04:00)
Language:

Cosmos 2237 Rocket - Orbit

View from above orbital plane
View from above orbital plane
View from above satellite
View from above satellite

Ground track
Ground track

The orbit data is extracted from the following two-line orbital elements,

1 22566U 93016B   17145.44293720 +.00000193 +00000-0 +12409-3 0  9991
2 22566 071.0067 114.6658 0010183 180.1408 179.9714 14.14948890248055
Epoch (UTC): 25 May 2017 10:37:49
Eccentricity: 0.0010183
inclination: 71.0067°
perigee height: 835 km
apogee height: 850 km
right ascension of ascending node: 114.6658°
argument of perigee: 180.1408°
revolutions per day: 14.14948890
mean anomaly at epoch: 179.9714°
orbit number at epoch: 24805

The dashed part of the orbit path shows where the satellite is in the earth's shadow,  

DLR